Location: Lake Zurich
(42.1970°N, 88.0930°W)
Time: 17:50:39
(UTC-05:00)

Amateur Radio Satellites - All Passes

Search period start: 25 October 2014 17:20
Search period end: 26 October 2014 17:20
Location: Lake Zurich, 42.1970°N, 88.0930°W

Satellite Date Start Highest point End Downlink Frequencies (MHz)
Time Altitude Azimuth
ISS 25 Oct 17:48:58 17:51:58 30° 23° (NNE) 17:54:58 145.800 FM
Hamsat 25 Oct 17:51:34 17:55:47 86° 77° (ENE) 18:00:00 145.90 MHz
JAS-2 25 Oct 17:52:36 17:58:31 71° 259° (WSW) 18:05:19 435.800 - 435.900 CW/SSB, 435.910 FM
KITSAT 1 25 Oct 17:52:59 17:56:33 13° 13° (NNE) 18:00:07 435.175 FM
Saudisat 1A 25 Oct 17:59:00 18:00:21 11° 252° (WSW) 18:01:42 436.775 MHz
SO-67 25 Oct 18:30:56 18:33:49 25° 71° (ENE) 18:36:42 435.3500 MHz FM
OPAL 25 Oct 18:56:38 19:01:22 46° 292° (WNW) 19:06:03 ?
HO-68 25 Oct 19:01:56 19:05:58 16° 51° (NE) 19:10:00 435.675 MHz FM
STRAND 1 25 Oct 19:03:44 19:08:14 30° 96° (E) 19:12:42 ?
ISS 25 Oct 19:25:33 19:28:46 45° 220° (SW) 19:31:58 145.800 FM
KITSAT 1 25 Oct 19:48:02 19:55:05 32° 41° (NE) 20:02:06 435.175 FM
SO-67 25 Oct 20:04:24 20:06:47 18° 267° (W) 20:09:11 435.3500 MHz FM
RS-15 25 Oct 20:08:34 20:13:23 14° 96° (E) 20:18:09 29.354 - 29.394 USB, Beacon 29.352 USB
SO-50 25 Oct 20:24:53 20:28:46 23° 43° (NE) 20:32:40 436.795 FM
STRAND 1 25 Oct 20:42:48 20:47:25 34° 293° (WNW) 20:52:02 ?
HO-68 25 Oct 20:45:23 20:52:31 76° 71° (ENE) 20:59:42 435.675 MHz FM
ZACube-1 25 Oct 21:03:54 21:06:21 15° 63° (ENE) 21:08:47 437.345 MHz
UKube-1 25 Oct 21:05:26 21:09:23 35° 69° (ENE) 21:13:22 145.840 MHz, 145.915 MHz
KITSAT 1 25 Oct 21:43:09 21:51:12 73° 243° (WSW) 21:59:13 435.175 FM
UOSAT-12 25 Oct 21:43:49 21:46:44 16° 37° (NE) 21:49:36 437.025 FM, 437.400 FM
Oscar 11 25 Oct 21:45:39 21:49:59 85° 76° (ENE) 21:54:20 145.825 FM, Beacon 2401.500 USB
FUNcube-1 25 Oct 21:46:19 21:50:32 37° 71° (ENE) 21:54:41 145.950 - 145.970 MHz USB
SO-50 25 Oct 22:04:54 22:09:39 56° 241° (WSW) 22:14:25 436.795 FM
RS-15 25 Oct 22:12:38 22:23:29 69° 117° (ESE) 22:34:17 29.354 - 29.394 USB, Beacon 29.352 USB
HO-68 25 Oct 22:35:53 22:40:54 20° 269° (W) 22:45:57 435.675 MHz FM
ZACube-1 25 Oct 22:37:42 22:42:15 63° 259° (W) 22:46:45 437.345 MHz
UKube-1 25 Oct 22:42:20 22:45:39 21° 266° (W) 22:49:01 145.840 MHz, 145.915 MHz
MaSat-1 25 Oct 23:13:20 23:17:08 36° 111° (ESE) 23:20:36 437.345 MHz
UOSAT-12 25 Oct 23:22:49 23:27:35 88° 57° (ENE) 23:32:14 437.025 FM, 437.400 FM
FUNcube-1 25 Oct 23:23:26 23:26:59 22° 266° (W) 23:30:30 145.950 - 145.970 MHz USB
KITSAT 1 25 Oct 23:41:40 23:45:10 13° 261° (W) 23:48:41 435.175 FM
RS-15 26 Oct 00:26:30 00:36:36 41° 322° (NW) 00:46:48 29.354 - 29.394 USB, Beacon 29.352 USB
Oscar 10/S400 26 Oct 00:30:37 01:33:07 25° 236° (SW) 04:39:38 145.825 - 145.975 CW/USB, Beacon 145.810 USB
MaSat-1 26 Oct 00:49:49 00:52:46 20° 305° (NW) 00:55:32 437.345 MHz
UOSAT-12 26 Oct 01:05:58 01:06:58 11° 254° (WSW) 01:07:57 437.025 FM, 437.400 FM
JAS-1B 26 Oct 01:13:03 01:17:53 19° 93° (E) 01:23:14 435.800 - 435.900 CW/SSB
Oscar 19 26 Oct 01:24:42 01:28:14 19° 92° (E) 01:31:45 437.125 CW, 437.150 USB
AO-27 26 Oct 01:46:52 01:48:47 12° 89° (E) 01:50:42 436.795 MHz FM
AO-Echo 26 Oct 01:55:45 01:59:42 21° 92° (E) 02:03:37 ?
Oscar 16 26 Oct 02:09:38 02:14:37 50° 100° (E) 02:19:35 437.025 USB, Beacon 2401.1428
Uribyol 2 26 Oct 02:31:39 02:36:23 34° 97° (E) 02:41:04 436.500 FM
PCSat 26 Oct 02:35:48 02:39:19 18° 105° (ESE) 02:42:50 145.825 MHz
ITAMSAT 1 26 Oct 02:37:57 02:42:47 37° 97° (E) 02:47:34 435.822 SSB
RS-15 26 Oct 02:45:08 02:53:07 22° 355° (N) 03:01:14 29.354 - 29.394 USB, Beacon 29.352 USB
JAS-1B 26 Oct 03:02:10 03:08:52 79° 287° (WNW) 03:16:56 435.800 - 435.900 CW/SSB
Oscar 19 26 Oct 03:02:55 03:07:54 53° 289° (WNW) 03:12:51 437.125 CW, 437.150 USB
Gurwin Techsat 1B 26 Oct 03:05:08 03:10:01 36° 97° (E) 03:14:51 435.225 FM
TMSAT-1 26 Oct 03:15:36 03:20:23 33° 96° (E) 03:25:07 436.925 FM
AO-7 26 Oct 03:23:04 03:25:46 12° 86° (E) 03:28:28 29.400 - 29.500 MHz
AO-27 26 Oct 03:23:40 03:28:56 83° 285° (WNW) 03:34:09 436.795 MHz FM
AO-Echo 26 Oct 03:33:34 03:38:44 52° 289° (WNW) 03:43:51 ?
Oscar 16 26 Oct 03:49:50 03:53:36 21° 297° (WNW) 03:57:22 437.025 USB, Beacon 2401.1428
Sapphire 26 Oct 03:54:20 03:59:43 78° 118° (ESE) 04:05:10 437.095 MHz 1200 baud AX-25 AFSK
Uribyol 2 26 Oct 04:11:15 04:15:46 31° 294° (WNW) 04:20:15 436.500 FM
PCSat 26 Oct 04:16:47 04:22:09 66° 302° (WNW) 04:27:34 145.825 MHz
ITAMSAT 1 26 Oct 04:17:41 04:22:07 29° 294° (WNW) 04:26:32 435.822 SSB
OPAL 26 Oct 04:33:25 04:38:14 42° 67° (ENE) 04:43:01 ?
Gurwin Techsat 1B 26 Oct 04:45:16 04:49:52 30° 294° (WNW) 04:54:26 435.225 FM
JAS-1B 26 Oct 04:55:13 04:58:45 15° 303° (WNW) 05:02:34 435.800 - 435.900 CW/SSB
TMSAT-1 26 Oct 04:55:33 05:00:14 32° 293° (WNW) 05:04:53 436.925 FM
RS-15 26 Oct 05:00:39 05:10:18 32° 31° (NNE) 05:20:11 29.354 - 29.394 USB, Beacon 29.352 USB
JAS-2 26 Oct 05:01:43 05:07:26 22° 88° (E) 05:13:04 435.800 - 435.900 CW/SSB, 435.910 FM
AO-27 26 Oct 05:05:46 05:07:36 12° 303° (WNW) 05:09:26 436.795 MHz FM
AO-7 26 Oct 05:11:43 05:20:01 68° 105° (ESE) 05:28:18 29.400 - 29.500 MHz
Uosat F 26 Oct 05:19:33 05:24:36 70° 103° (ESE) 05:29:37 435.120 FM
Hamsat 26 Oct 05:38:04 05:40:24 14° 91° (E) 05:42:44 145.90 MHz
Sapphire 26 Oct 05:39:53 05:43:46 20° 317° (NW) 05:47:40 437.095 MHz 1200 baud AX-25 AFSK
PCSat 26 Oct 06:03:59 06:06:39 14° 323° (NW) 06:09:20 145.825 MHz
OPAL 26 Oct 06:13:06 06:17:14 24° 263° (W) 06:21:22 ?
STRAND 1 26 Oct 06:20:01 06:24:52 45° 70° (ENE) 06:29:46 ?
Saudisat 1A 26 Oct 06:25:13 06:28:07 18° 111° (ESE) 06:31:02 436.775 MHz
JAS-2 26 Oct 06:45:18 06:53:08 82° 286° (WNW) 07:00:55 435.800 - 435.900 CW/SSB, 435.910 FM
Uosat F 26 Oct 06:59:51 07:02:48 16° 300° (WNW) 07:05:45 435.120 FM
AO-7 26 Oct 07:05:19 07:12:12 30° 304° (NW) 07:19:06 29.400 - 29.500 MHz
Hamsat 26 Oct 07:12:33 07:16:36 48° 287° (WNW) 07:20:39 145.90 MHz
RS-15 26 Oct 07:13:10 07:24:24 86° 57° (ENE) 07:36:07 29.354 - 29.394 USB, Beacon 29.352 USB
SO-67 26 Oct 07:26:10 07:29:10 27° 96° (E) 07:32:09 435.3500 MHz FM
STRAND 1 26 Oct 08:00:18 08:04:16 22° 267° (W) 08:08:15 ?
Saudisat 1A 26 Oct 08:03:00 08:07:17 51° 308° (NW) 08:11:36 436.775 MHz
HO-68 26 Oct 08:15:39 08:18:27 12° 87° (E) 08:21:15 435.675 MHz FM
JAS-2 26 Oct 08:31:57 08:37:02 19° 304° (NW) 08:42:09 435.800 - 435.900 CW/SSB, 435.910 FM
MaSat-1 26 Oct 08:58:30 09:01:06 68° 63° (ENE) 09:03:29 437.345 MHz
SO-67 26 Oct 08:59:39 09:01:56 17° 292° (WNW) 09:04:13 435.3500 MHz FM
RS-15 26 Oct 09:27:00 09:35:26 26° 258° (WSW) 09:44:10 29.354 - 29.394 USB, Beacon 29.352 USB
Oscar 11 26 Oct 09:34:12 09:36:38 15° 91° (E) 09:39:04 145.825 FM, Beacon 2401.500 USB
HO-68 26 Oct 10:00:02 10:07:16 76° 105° (ESE) 10:14:27 435.675 MHz FM
KITSAT 1 26 Oct 10:21:09 10:25:09 15° 99° (E) 10:29:08 435.175 FM
ZACube-1 26 Oct 10:27:13 10:30:37 23° 94° (E) 10:33:57 437.345 MHz
UKube-1 26 Oct 10:28:42 10:33:02 61° 101° (ESE) 10:37:20 145.840 MHz, 145.915 MHz
Oscar 10/S400 26 Oct 10:57:28 11:12:44 17° 152° (SSE) 11:23:43 145.825 - 145.975 CW/USB, Beacon 145.810 USB
Sapphire 26 Oct 11:00:03 11:02:50 14° 37° (NE) 11:05:37 437.095 MHz 1200 baud AX-25 AFSK
Oscar 11 26 Oct 11:08:56 11:13:06 49° 287° (WNW) 11:17:15 145.825 FM, Beacon 2401.500 USB
FUNcube-1 26 Oct 11:10:57 11:15:12 72° 102° (ESE) 11:19:21 145.950 - 145.970 MHz USB
PCSat 26 Oct 11:21:42 11:25:41 20° 43° (NE) 11:29:38 145.825 MHz
HO-68 26 Oct 11:48:54 11:54:15 23° 304° (WNW) 11:59:35 435.675 MHz FM
Oscar 16 26 Oct 11:52:34 11:53:40 11° 57° (ENE) 11:54:46 437.025 USB, Beacon 2401.1428
JAS-1B 26 Oct 12:02:49 12:05:27 14° 56° (NE) 12:08:05 435.800 - 435.900 CW/SSB
ZACube-1 26 Oct 12:03:19 12:07:02 30° 291° (WNW) 12:10:40 437.345 MHz
UKube-1 26 Oct 12:06:28 12:08:43 14° 298° (WNW) 12:10:57 145.840 MHz, 145.915 MHz
ISS 26 Oct 12:07:39 12:10:49 42° 139° (SE) 12:14:00 145.800 FM
KITSAT 1 26 Oct 12:11:08 12:19:11 77° 118° (ESE) 12:27:16 435.175 FM
SO-50 26 Oct 12:20:15 12:24:28 42° 117° (ESE) 12:28:50 436.795 FM
Oscar 19 26 Oct 12:41:51 12:46:15 29° 66° (ENE) 12:50:39 437.125 CW, 437.150 USB
Sapphire 26 Oct 12:41:52 12:47:19 68° 58° (ENE) 12:52:42 437.095 MHz 1200 baud AX-25 AFSK
FUNcube-1 26 Oct 12:49:47 12:50:58 11° 299° (WNW) 12:52:08 145.950 - 145.970 MHz USB
PCSat 26 Oct 13:04:15 13:09:41 75° 243° (WSW) 13:15:05 145.825 MHz
AO-27 26 Oct 13:04:38 13:08:29 21° 63° (ENE) 13:12:20 436.795 MHz FM
AO-Echo 26 Oct 13:09:13 13:13:19 27° 65° (ENE) 13:17:32 ?
Oscar 16 26 Oct 13:27:00 13:32:09 77° 74° (ENE) 13:37:19 437.025 USB, Beacon 2401.1428
UOSAT-12 26 Oct 13:35:11 13:38:51 24° 112° (ESE) 13:42:35 437.025 FM, 437.400 FM
ISS 26 Oct 13:44:34 13:47:35 31° 337° (NNW) 13:50:36 145.800 FM
JAS-1B 26 Oct 13:49:27 13:55:23 85° 256° (WSW) 14:01:05 435.800 - 435.900 CW/SSB
Uribyol 2 26 Oct 13:49:51 13:54:55 55° 71° (ENE) 14:00:02 436.500 FM
ITAMSAT 1 26 Oct 13:56:18 14:01:25 59° 72° (ENE) 14:06:34 435.822 SSB
SO-50 26 Oct 14:01:23 14:05:11 26° 316° (NW) 14:09:06 436.795 FM
KITSAT 1 26 Oct 14:08:28 14:15:23 30° 320° (NW) 14:22:21 435.175 FM
Oscar 19 26 Oct 14:20:47 14:25:28 35° 263° (W) 14:30:10 437.125 CW, 437.150 USB
AO-7 26 Oct 14:21:36 14:27:32 23° 51° (NE) 14:33:28 29.400 - 29.500 MHz
Gurwin Techsat 1B 26 Oct 14:26:37 14:31:49 59° 72° (ENE) 14:37:03 435.225 FM
Sapphire 26 Oct 14:26:43 14:30:08 17° 255° (WSW) 14:33:33 437.095 MHz 1200 baud AX-25 AFSK
TMSAT-1 26 Oct 14:36:43 14:41:52 54° 71° (ENE) 14:47:02 436.925 FM
AO-27 26 Oct 14:42:32 14:47:36 52° 260° (W) 14:52:43 436.795 MHz FM
AO-Echo 26 Oct 14:47:23 14:51:54 37° 263° (W) 14:56:36 ?
Saudisat 1A 26 Oct 14:50:15 14:53:35 20° 42° (NE) 14:56:54 436.775 MHz
Uosat F 26 Oct 14:57:47 15:00:11 14° 59° (ENE) 15:02:35 435.120 FM
Oscar 16 26 Oct 15:09:50 15:12:04 13° 271° (W) 15:14:18 437.025 USB, Beacon 2401.1428
UOSAT-12 26 Oct 15:14:18 15:18:45 43° 310° (NW) 15:23:16 437.025 FM, 437.400 FM
ISS 26 Oct 15:22:51 15:25:02 16° 357° (N) 15:27:14 145.800 FM
Uribyol 2 26 Oct 15:31:06 15:34:43 19° 268° (W) 15:38:23 436.500 FM
ITAMSAT 1 26 Oct 15:37:53 15:41:17 18° 269° (W) 15:44:43 435.822 SSB
Gurwin Techsat 1B 26 Oct 16:08:38 16:12:10 18° 269° (W) 16:15:43 435.225 FM
KITSAT 1 26 Oct 16:10:33 16:14:00 13° 349° (NNW) 16:17:27 435.175 FM
AO-7 26 Oct 16:10:59 16:19:16 90° 253° (WSW) 16:27:37 29.400 - 29.500 MHz
TMSAT-1 26 Oct 16:18:21 16:22:06 20° 268° (W) 16:25:53 436.925 FM
Saudisat 1A 26 Oct 16:29:09 16:33:29 56° 241° (WSW) 16:37:48 436.775 MHz
Hamsat 26 Oct 16:33:05 16:34:41 12° 63° (ENE) 16:36:17 145.90 MHz
Uosat F 26 Oct 16:33:15 16:38:16 82° 256° (WSW) 16:43:21 435.120 FM
JAS-2 26 Oct 16:57:56 17:03:42 48° 67° (ENE) 17:10:15 435.800 - 435.900 CW/SSB, 435.910 FM
ISS 26 Oct 16:59:52 17:02:36 23° 17° (NNE) 17:05:20 145.800 FM
